�������l�o���
Date,Time,MP-1(��Sv/h),MP-2(��Sv/h),MP-3(��Sv/h),MP-4(��Sv/h),MP-5(��Sv/h),MP-6(��Sv/h),MP-7(��Sv/h),MP-8(��Sv/h),����,����(m/s),���J
2021/02/23,00:00,0.660,0.958,0.607,1.200,0.844,0.383,0.671,0.627,���쐼,7.4,��
2021/02/23,00:10,0.661,0.958,0.608,1.200,0.846,0.384,0.673,0.627,��,5.6,��
2021/02/23,00:20,0.660,0.958,0.605,1.201,0.846,0.384,0.673,0.626,���쐼,6.2,��
2021/02/23,00:30,0.659,0.957,0.608,1.200,0.846,0.383,0.672,0.626,��,8.4,��
2021/02/23,00:40,0.659,0.956,0.607,1.201,0.847,0.383,0.673,0.626,���쐼,8.3,��
2021/02/23,00:50,0.659,0.956,0.607,1.201,0.846,0.383,0.673,0.627,��,11.6,��
2021/02/23,01:00,0.660,0.957,0.607,1.201,0.846,0.383,0.674,0.628,��,10.2,��
2021/02/23,01:10,0.660,0.954,0.607,1.202,0.846,0.382,0.672,0.625,��,6.5,��
2021/02/23,01:20,0.658,0.955,0.608,1.202,0.846,0.382,0.673,0.628,��,8.9,��
2021/02/23,01:30,0.660,0.953,0.608,1.201,0.847,0.383,0.672,0.627,��,10.9,��
2021/02/23,01:40,0.660,0.956,0.608,1.200,0.846,0.383,0.671,0.626,��,9.8,��
2021/02/23,01:50,0.660,0.955,0.607,1.201,0.848,0.381,0.671,0.627,��,10.2,��
2021/02/23,02:00,0.658,0.956,0.607,1.200,0.845,0.383,0.671,0.626,��,9.1,��
2021/02/23,02:10,0.661,0.955,0.607,1.200,0.846,0.384,0.671,0.628,��,10.5,��
2021/02/23,02:20,0.659,0.958,0.607,1.200,0.846,0.384,0.670,0.627,��,11.4,��
2021/02/23,02:30,0.660,0.955,0.608,1.201,0.847,0.383,0.670,0.627,��,11.3,��
2021/02/23,02:40,0.660,0.956,0.608,1.201,0.847,0.382,0.670,0.628,��,10.2,��
2021/02/23,02:50,0.659,0.955,0.608,1.201,0.846,0.382,0.668,0.626,��,9.3,��
2021/02/23,03:00,0.659,0.958,0.609,1.205,0.847,0.382,0.671,0.625,��,11.6,��
2021/02/23,03:10,0.662,0.954,0.608,1.203,0.846,0.381,0.670,0.626,��,11.1,��
2021/02/23,03:20,0.659,0.958,0.605,1.200,0.845,0.383,0.671,0.627,���k��,11.6,��
2021/02/23,03:30,0.661,0.957,0.607,1.202,0.845,0.382,0.669,0.628,��,10.9,�L
2021/02/23,03:40,0.660,0.957,0.606,1.200,0.846,0.383,0.668,0.627,���k��,9.8,��
2021/02/23,03:50,0.660,0.956,0.607,1.203,0.847,0.383,0.671,0.627,��,7.5,��
2021/02/23,04:00,0.660,0.954,0.606,1.201,0.846,0.382,0.670,0.625,��,5.9,��
2021/02/23,04:10,0.659,0.956,0.606,1.203,0.847,0.383,0.669,0.626,��,7.6,��
2021/02/23,04:20,0.659,0.957,0.605,1.201,0.846,0.381,0.671,0.626,���쐼,7.9,��
2021/02/23,04:30,0.660,0.956,0.606,1.202,0.846,0.383,0.670,0.626,��,5.6,��
2021/02/23,04:40,0.659,0.955,0.607,1.199,0.845,0.382,0.670,0.626,���k��,6.5,��
2021/02/23,04:50,0.658,0.955,0.606,1.201,0.846,0.381,0.669,0.627,�k��,6.9,��
2021/02/23,05:00,0.658,0.957,0.605,1.201,0.846,0.381,0.670,0.627,�k��,5.0,��
2021/02/23,05:10,0.658,0.956,0.605,1.202,0.847,0.381,0.673,0.626,���k��,6.4,��
2021/02/23,05:20,0.657,0.957,0.606,1.201,0.845,0.382,0.672,0.626,���k��,5.3,��
2021/02/23,05:30,0.659,0.953,0.606,1.201,0.846,0.380,0.671,0.626,���k��,10.5,��
2021/02/23,05:40,0.658,0.958,0.607,1.202,0.845,0.381,0.671,0.628,���k��,11.4,��
2021/02/23,05:50,0.659,0.957,0.605,1.202,0.844,0.381,0.672,0.626,���k��,9.9,��
2021/02/23,06:00,0.657,0.955,0.604,1.201,0.845,0.381,0.672,0.625,���k��,8.6,��
2021/02/23,06:10,0.659,0.954,0.604,1.204,0.845,0.382,0.670,0.624,�k��,6.8,��
2021/02/23,06:20,0.656,0.956,0.605,1.199,0.837,0.381,0.670,0.628,�k�k��,7.5,��
2021/02/23,06:30,0.657,0.956,0.605,1.200,0.844,0.381,0.669,0.627,�k��,8.3,��
2021/02/23,06:40,0.658,0.956,0.604,1.201,0.844,0.381,0.669,0.626,�k��,10.0,��
2021/02/23,06:50,0.656,0.955,0.603,1.200,0.844,0.382,0.670,0.627,�k��,10.2,��
2021/02/23,07:00,0.657,0.953,0.604,1.201,0.843,0.381,0.669,0.625,�k��,8.7,��
2021/02/23,07:10,0.657,0.957,0.604,1.200,0.844,0.380,0.668,0.625,�k��,9.4,��
2021/02/23,07:20,0.656,0.957,0.604,1.199,0.844,0.380,0.670,0.626,�k��,6.0,��
2021/02/23,07:30,0.656,0.957,0.605,1.201,0.844,0.380,0.669,0.624,�k��,6.9,��
2021/02/23,07:40,0.656,0.959,0.604,1.200,0.842,0.381,0.670,0.625,�k��,8.5,��
2021/02/23,07:50,0.657,0.958,0.606,1.200,0.845,0.380,0.669,0.625,�k��,9.3,��
2021/02/23,08:00,0.658,0.958,0.605,1.198,0.843,0.380,0.670,0.624,�k��,8.6,��
2021/02/23,08:10,0.656,0.956,0.604,1.200,0.845,0.381,0.672,0.625,���k��,7.5,�L
2021/02/23,08:20,0.655,0.957,0.604,1.203,0.844,0.380,0.667,0.626,���k��,7.0,��
2021/02/23,08:30,0.657,0.958,0.604,1.200,0.844,0.379,0.670,0.625,���k��,9.8,��
2021/02/23,08:40,0.656,0.959,0.607,1.202,0.844,0.381,0.669,0.625,���k��,11.3,��
2021/02/23,08:50,0.657,0.960,0.606,1.200,0.843,0.380,0.669,0.627,��,11.3,��
2021/02/23,09:00,0.656,0.957,0.604,1.202,0.845,0.380,0.668,0.627,��,8.5,��
2021/02/23,09:10,0.656,0.958,0.605,1.201,0.843,0.380,0.669,0.626,��,10.3,��
2021/02/23,09:20,0.658,0.956,0.604,1.202,0.843,0.381,0.668,0.628,���k��,10.0,��
2021/02/23,09:30,0.657,0.954,0.604,1.202,0.845,0.381,0.670,0.626,�k��,6.6,��
2021/02/23,09:40,0.658,0.957,0.606,1.199,0.846,0.381,0.668,0.627,�k��,9.4,��
2021/02/23,09:50,0.656,0.957,0.605,1.202,0.843,0.380,0.667,0.627,�k��,8.6,��
2021/02/23,10:00,0.655,0.955,0.606,1.204,0.845,0.380,0.668,0.628,�k��,9.8,��
2021/02/23,10:10,0.657,0.954,0.605,1.201,0.844,0.379,0.668,0.628,�k��,9.3,��
2021/02/23,10:20,0.657,0.955,0.606,1.200,0.845,0.380,0.665,0.627,�k��,9.5,��
2021/02/23,10:30,0.657,0.955,0.604,1.201,0.847,0.381,0.668,0.627,�k��,11.6,��
2021/02/23,10:40,0.659,0.956,0.604,1.201,0.845,0.381,0.667,0.625,�k��,9.1,��
2021/02/23,10:50,0.659,0.955,0.606,1.199,0.845,0.382,0.669,0.622,�k��,7.9,��
2021/02/23,11:00,0.657,0.955,0.605,1.201,0.847,0.381,0.668,0.623,�k�k��,10.2,��
2021/02/23,11:10,0.657,0.956,0.604,1.202,0.846,0.380,0.667,0.626,�k��,10.5,��
2021/02/23,11:20,0.656,0.956,0.605,1.203,0.847,0.380,0.668,0.625,�k��,10.8,��
2021/02/23,11:30,0.658,0.957,0.606,1.201,0.846,0.378,0.668,0.625,�k��,10.7,��
2021/02/23,11:40,0.659,0.957,0.605,1.202,0.848,0.380,0.668,0.626,�k��,11.3,��
2021/02/23,11:50,0.658,0.958,0.605,1.202,0.847,0.379,0.669,0.627,���k��,15.2,��
2021/02/23,12:00,0.658,0.958,0.606,1.204,0.845,0.381,0.669,0.625,��,12.4,��
2021/02/23,12:10,0.657,0.961,0.607,1.202,0.848,0.381,0.668,0.628,���k��,10.6,��
2021/02/23,12:20,0.659,0.962,0.605,1.204,0.846,0.380,0.669,0.627,��,14.1,��
2021/02/23,12:30,0.658,0.959,0.605,1.204,0.847,0.381,0.667,0.625,���k��,12.2,��
2021/02/23,12:40,0.657,0.958,0.603,1.203,0.846,0.380,0.669,0.626,���k��,6.2,��
2021/02/23,12:50,0.657,0.958,0.605,1.204,0.848,0.379,0.669,0.627,�k��,10.2,��
2021/02/23,13:00,0.657,0.958,0.605,1.202,0.847,0.382,0.668,0.628,���k��,13.5,��
2021/02/23,13:10,0.656,0.957,0.605,1.205,0.846,0.382,0.667,0.626,�k��,10.6,��
2021/02/23,13:20,0.657,0.959,0.604,1.204,0.846,0.380,0.669,0.625,�k��,8.8,��
2021/02/23,13:30,0.657,0.958,0.606,1.205,0.847,0.381,0.668,0.626,���k��,10.6,��
2021/02/23,13:40,0.659,0.955,0.606,1.204,0.848,0.380,0.668,0.625,���k��,6.1,��
2021/02/23,13:50,0.656,0.958,0.606,1.204,0.847,0.383,0.669,0.624,�k��,9.0,��
2021/02/23,14:00,0.658,0.959,0.605,1.204,0.847,0.380,0.667,0.625,�k��,9.4,��
2021/02/23,14:10,0.659,0.957,0.607,1.204,0.849,0.381,0.668,0.625,���k��,8.4,��
2021/02/23,14:20,0.658,0.959,0.606,1.205,0.847,0.382,0.667,0.625,�k��,9.1,��
2021/02/23,14:30,0.657,0.959,0.607,1.202,0.846,0.381,0.666,0.626,��,6.3,��
2021/02/23,14:40,0.659,0.960,0.606,1.206,0.845,0.381,0.668,0.624,���k��,8.3,��
2021/02/23,14:50,0.658,0.962,0.604,1.203,0.849,0.382,0.667,0.624,��,12.0,��
2021/02/23,15:00,0.659,0.963,0.606,1.203,0.847,0.381,0.667,0.624,��,11.6,��
2021/02/23,15:10,0.657,0.961,0.606,1.204,0.848,0.382,0.668,0.624,���k��,10.0,��
2021/02/23,15:20,0.658,0.962,0.606,1.204,0.848,0.380,0.668,0.625,���k��,8.1,��
2021/02/23,15:30,0.657,0.962,0.604,1.204,0.847,0.381,0.669,0.624,���k��,7.5,��
2021/02/23,15:40,0.658,0.961,0.605,1.206,0.848,0.382,0.668,0.628,���k��,8.2,��
2021/02/23,15:50,0.658,0.961,0.606,1.202,0.849,0.380,0.669,0.627,���k��,8.2,��
2021/02/23,16:00,0.657,0.964,0.603,1.207,0.849,0.381,0.669,0.627,���k��,12.4,��
2021/02/23,16:10,0.656,0.963,0.605,1.204,0.847,0.381,0.670,0.626,���k��,9.9,��
2021/02/23,16:20,0.657,0.962,0.606,1.205,0.851,0.380,0.668,0.627,���k��,10.9,��
2021/02/23,16:30,0.657,0.959,0.604,1.203,0.851,0.381,0.670,0.627,���k��,12.4,��
2021/02/23,16:40,0.656,0.958,0.605,1.205,0.848,0.380,0.669,0.627,���k��,12.7,��
2021/02/23,16:50,0.657,0.961,0.606,1.204,0.849,0.379,0.669,0.628,���k��,8.1,��
2021/02/23,17:00,0.656,0.959,0.605,1.205,0.850,0.379,0.668,0.627,�k��,6.5,��
2021/02/23,17:10,0.657,0.959,0.605,1.204,0.848,0.380,0.670,0.624,���k��,10.2,��
2021/02/23,17:20,0.657,0.962,0.605,1.204,0.850,0.380,0.669,0.627,���k��,8.4,��
2021/02/23,17:30,0.655,0.960,0.604,1.206,0.848,0.379,0.669,0.627,���k��,6.7,��
2021/02/23,17:40,0.658,0.959,0.602,1.204,0.848,0.378,0.669,0.627,�k,3.9,��
2021/02/23,17:50,0.655,0.960,0.604,1.206,0.850,0.379,0.669,0.627,�k,1.5,��
2021/02/23,18:00,0.657,0.958,0.605,1.205,0.851,0.377,0.670,0.626,�k�k��,1.9,��
2021/02/23,18:10,0.657,0.959,0.603,1.204,0.849,0.378,0.669,0.625,�k�k��,2.6,��
2021/02/23,18:20,0.656,0.960,0.604,1.204,0.851,0.381,0.668,0.626,�k�k��,2.3,��
2021/02/23,18:30,0.658,0.960,0.603,1.205,0.849,0.380,0.669,0.625,���k��,1.7,��
2021/02/23,18:40,0.655,0.959,0.604,1.204,0.851,0.379,0.669,0.626,�k��,2.9,��
2021/02/23,18:50,0.655,0.961,0.604,1.205,0.849,0.380,0.668,0.625,�k�k��,1.7,��
2021/02/23,19:00,0.656,0.958,0.603,1.203,0.847,0.380,0.668,0.625,-,CALM,��
2021/02/23,19:10,0.654,0.958,0.604,1.203,0.851,0.379,0.668,0.627,�k�k��,1.7,��
2021/02/23,19:20,0.655,0.959,0.603,1.201,0.849,0.378,0.667,0.625,�k�k��,2.2,��
2021/02/23,19:30,0.655,0.960,0.604,1.203,0.849,0.379,0.667,0.626,��쓌,1.1,��
2021/02/23,19:40,0.656,0.959,0.602,1.202,0.848,0.379,0.669,0.626,���쐼,0.8,��
2021/02/23,19:50,0.656,0.960,0.604,1.201,0.851,0.378,0.668,0.626,�k�k��,0.9,��
2021/02/23,20:00,0.655,0.959,0.603,1.203,0.850,0.379,0.667,0.625,���쓌,1.7,��
2021/02/23,20:10,0.655,0.960,0.603,1.205,0.847,0.378,0.668,0.625,���k��,0.8,��
2021/02/23,20:20,0.655,0.959,0.604,1.202,0.851,0.377,0.668,0.626,���k��,3.8,��
2021/02/23,20:30,0.655,0.960,0.604,1.202,0.851,0.378,0.666,0.625,�k�k��,3.0,��
2021/02/23,20:40,0.655,0.959,0.604,1.203,0.849,0.379,0.666,0.627,�k�k��,3.7,��
2021/02/23,20:50,0.654,0.960,0.604,1.205,0.849,0.378,0.668,0.626,�k,2.6,��
2021/02/23,21:00,0.656,0.958,0.603,1.201,0.848,0.379,0.668,0.625,�k,0.9,��
2021/02/23,21:10,0.654,0.960,0.603,1.204,0.846,0.379,0.667,0.625,�k,3.3,��
2021/02/23,21:20,0.656,0.962,0.605,1.201,0.847,0.378,0.667,0.624,�k,4.1,��
2021/02/23,21:30,0.656,0.959,0.604,1.202,0.847,0.378,0.666,0.625,�k,3.6,��
2021/02/23,21:40,0.653,0.960,0.603,1.203,0.847,0.376,0.666,0.623,�k,3.4,��
2021/02/23,21:50,0.656,0.959,0.602,1.202,0.848,0.379,0.667,0.626,�k,3.1,��
2021/02/23,22:00,0.656,0.957,0.604,1.201,0.847,0.378,0.667,0.624,�k�k��,1.9,��
2021/02/23,22:10,0.655,0.958,0.603,1.201,0.846,0.377,0.668,0.625,�k,1.7,��
2021/02/23,22:20,0.655,0.958,0.605,1.202,0.848,0.378,0.669,0.625,�k�k��,3.1,��
2021/02/23,22:30,0.655,0.959,0.602,1.202,0.847,0.378,0.666,0.625,�k,4.2,��
2021/02/23,22:40,0.655,0.958,0.604,1.203,0.849,0.378,0.669,0.625,�k�k��,3.6,��
2021/02/23,22:50,0.654,0.958,0.603,1.203,0.849,0.378,0.668,0.625,�k,3.3,��
2021/02/23,23:00,0.654,0.958,0.602,1.201,0.848,0.379,0.667,0.626,�k,5.0,��
2021/02/23,23:10,0.655,0.958,0.602,1.201,0.849,0.377,0.666,0.625,�k�k��,3.6,��
2021/02/23,23:20,0.653,0.957,0.602,1.202,0.848,0.378,0.668,0.624,�k�k��,4.0,��
2021/02/23,23:30,0.653,0.958,0.601,1.204,0.848,0.377,0.667,0.623,�k,3.7,��
2021/02/23,23:40,0.656,0.957,0.602,1.201,0.848,0.376,0.668,0.623,�k,4.4,��
2021/02/23,23:50,0.654,0.957,0.602,1.203,0.849,0.378,0.665,0.625,�k�k��,5.7,��
